GLOBALSTAR M025

Satellite information

Favourite Embed

Satellite Type and Status

PAYLOADIN ORBIT

Key statistics

Satellite GLOBALSTAR M025 at a glance.

Uptime

9685

Days in orbit

Revolutions

≈ 11.2

Per day

Orbit

MEO

Medium Earth Orbit

Inclination

52.0

Latest

Satellite identification and parameters

Extended collection of information and parameters for GLOBALSTAR M025.

Object identification

Identified? True

Debris? False

Object name: GLOBALSTAR M025

International designator: 1999-031A

Object number (NORAD): 25770

Object ID (CCSDS): 25770

Country: GLOBALSTAR (GLOB)

Current information (Y/N): Y

RCS size: LARGE

Orbital parameters

Period: 128.278 minutes

Inclination: 51.9812 deg

SMA: 8425.501 km

Apoapsis: 2049.92 km

Periapsis: 2044.812 km

RAAN: 102.1331 deg

Eccentricy: 0.00030313

Argument of periapsis: 94.6291 deg

Mean anomaly: 275.6499 deg

Mean motion: 11.22558917 rev/day

Mean motion (dot): -0.00000054 rev/day2

B* drag term: 0.00042779705 1/REarth

Two-line elements (TLE)

Creation date: Dec. 14, 2025, 6:24 p.m.

Reference frame: TEME

Reference center: EARTH

Epoch: Dec. 14, 2025, 6:04 a.m. UTC

TLE line 0: 0 GLOBALSTAR M025

TLE line 1: 1 25770U 99031A 25348.25281666 -.00000054 00000-0 42780-3 0 9995

TLE line 2: 2 25770 51.9812 102.1331 0003031 94.6291 275.6499 11.22558917501939

Live tracking on map

Real-time ground track for satellite GLOBALSTAR M025.

In-orbit conjunctions

There are no conjunctions computed for GLOBALSTAR M025, at the moment. Check back to stay up to date, as we update our databases every day.

Go to all conjunctions

Associated space launch

The Globalstar global mobile communications network offers global, digital real time voice, data and fax via a constellation of 48 minisatellites. The constellation operates in a 1410 km orbit inclined at 52 degrees, and will also have 8 spares. The satellites were built by Space Systems Loral and Alenia Aerospazio in Rome, Italy.

GLOBALSTAR M025 was lifted into orbit during the mission ‘Delta 7420-10C | Globalstar 25,47,49,52’, on board a Delta 7420-10C space rocket.

The launch took place on June 10, 1999, 1:48 p.m. from Space Launch Complex 17B.

For more information about the launch, click the button.

Launch to space Delta 7420-10C | Globalstar 25,47,49,52
Delta 7420-10C | Globalstar 25,47,49,52

Agency: N/A

Status: Launch Successful

Launch date: June 10, 1999, 1:48 p.m. UTC

Rocket: Delta 7420-10C

Launch pad: Space Launch Complex 17B

Location: Cape Canaveral SFS, FL, USA

...

Latest news about this satellite

There are no fresh news available about this satellite. Check back as we update our databases every day.


Newsletter sign-up

Weekly statistics, charts and insights to help you stay on top of the space industry.